Wind_Speed
22 23 23 22 21 24 23 23 23 19 21 20 16 13 16 17 22 19 21 24 25 24 23 26 27 29 31 33 34 35 36 37 36 36 36 36 36 35
22 23 24 24 23 23 23 26 26 26 30 20 22 18 21 25 26 29 26 25 27 27 27 28 27 29 30 32 34 35 35 35 36 37 37 38 38 38
23 24 26 26 26 25 25 26 24 24 28 35 33 32 30 31 29 29 28 28 28 29 27 28 27 28 29 32 34 35 34 33 34 34 35 35 36 38
27 25 25 26 28 28 27 27 27 26 26 30 29 28 29 27 27 28 28 28 27 29 28 28 29 29 28 27 27 29 30 30 31 32 34 34 35 37
26 26 28 25 27 27 28 30 30 28 26 26 31 27 27 28 26 22 26 28 25 23 23 24 25 27 28 27 26 26 27 27 28 28 28 28 29 32
29 28 27 27 28 29 30 30 31 31 30 28 28 31 27 26 27 21 26 23 23 20 22 23 20 19 24 27 25 26 27 26 26 27 28 28 30 31
28 29 29 28 29 30 31 30 28 33 34 32 29 30 31 28 24 18 21 27 25 21 18 14 18 17 18 22 23 23 24 25 25 26 28 28 30 31
28 28 29 29 29 31 32 33 35 35 29 33 31 27 33 27 24 22 23 26 26 20 15 17 12 13 16 19 20 20 20 21 22 24 25 26 26 25
27 26 26 27 27 27 29 29 30 32 38 41 36 35 34 31 25 25 25 27 29 29 28 27 21 21 18 17 17 18 19 19 20 21 22 22 22 20
29 25 26 29 28 26 26 29 29 28 29 33 38 40 39 33 27 29 29 29 31 31 25 29 23 24 22 21 20 22 21 19 19 20 21 19 19 20
30 29 25 26 27 26 25 29 29 29 30 30 30 31 32 34 30 30 30 28 31 29 18 16 17 21 22 22 23 21 20 21 20 19 18 18 18 18
28 30 28 24 24 24 24 25 28 28 27 29 33 29 31 32 30 29 28 26 28 27 13 10 16 19 19 25 26 26 23 20 21 20 19 17 15 16
29 30 30 29 25 24 24 27 28 27 27 28 31 30 29 31 31 26 26 25 26 24 21 16 21 19 20 21 16 21 23 21 22 21 20 18 17 18
32 32 30 30 27 30 29 28 28 27 29 30 32 35 32 31 30 25 22 24 23 22 20 18 19 19 24 23 22 23 24 25 21 17 16 15 13 12
29 30 29 31 32 31 30 29 26 26 28 31 32 35 33 31 28 24 24 24 23 21 19 18 19 18 19 24 23 21 19 21 20 19 17 15 13 12
26 30 36 36 37 35 34 32 28 29 29 29 31 34 31 31 28 25 23 23 24 22 20 22 22 19 17 19 21 21 18 15 18 20 17 16 15 15
33 35 38 38 36 34 31 31 29 26 30 29 28 31 31 31 26 25 24 24 25 25 23 24 21 18 16 15 18 19 19 20 19 21 20 19 18 17
31 34 35 35 34 33 32 33 33 30 27 27 27 31 31 29 26 24 23 26 27 27 27 24 21 17 14 14 15 16 18 20 20 22 22 20 20 18
29 33 34 33 31 31 33 34 31 29 27 26 26 29 29 28 25 26 25 25 25 24 25 22 19 17 15 13 11 13 16 19 20 21 21 20 19 17
31 33 34 34 33 35 36 34 31 29 29 26 25 26 28 28 25 24 23 24 23 22 22 20 18 18 17 14 12 12 17 16 18 18 18 18 16 16
29 30 30 30 32 32 34 29 30 29 27 26 23 23 25 25 22 21 20 19 19 19 18 17 18 17 17 14 10 11 15 15 15 14 13 11 9 10
29 29 30 28 31 36 32 26 27 26 26 24 21 22 23 22 20 18 17 16 17 16 17 16 15 17 17 16 14 13 15 15 14 10 10 11 10 9
30 30 30 32 34 31 26 26 24 24 23 21 21 21 22 18 17 15 14 15 15 15 14 14 15 15 16 15 13 13 14 14 14 13 13 12 10 9
Wind_Direction
273 269 265 263 258 262 262 261 266 277 282 276 270 266 257 258 266 273 267 264 277 269 270 266 261 258 256 255 254 254 256 257 258 259 260 261 262 262
278 271 269 266 260 263 264 264 263 261 267 270 271 258 252 255 267 275 280 280 278 278 273 269 266 261 257 256 256 256 257 259 259 260 261 262 263 263
280 271 266 265 264 263 260 265 256 251 259 270 273 280 272 270 274 280 284 286 287 283 277 272 265 262 261 259 256 254 257 259 260 261 262 263 263 263
284 270 266 267 264 261 256 254 255 254 259 269 281 282 284 285 281 283 287 286 285 281 279 278 270 260 260 259 256 254 256 258 260 262 261 265 268 266
287 286 275 263 261 264 261 259 256 255 256 260 279 284 281 288 291 289 286 288 286 285 282 285 280 260 247 251 254 254 255 259 263 264 263 266 270 268
287 280 275 275 264 260 262 262 262 260 261 264 270 284 286 286 288 286 289 295 297 278 274 284 279 269 247 249 254 257 258 263 264 268 270 273 272 272
290 286 283 274 271 266 258 257 263 262 260 263 264 272 286 286 286 283 282 300 305 283 296 284 283 273 260 251 252 256 259 262 265 269 272 275 276 272
291 288 284 282 278 277 271 260 252 253 261 262 259 262 280 281 280 276 282 294 303 300 280 268 254 261 260 255 259 258 260 263 266 269 273 278 280 278
296 288 287 285 283 281 283 276 266 258 250 254 259 262 272 282 283 275 276 283 290 293 296 284 252 262 271 270 261 259 262 269 272 272 271 274 275 275
302 291 283 276 276 275 278 277 270 267 266 255 253 259 265 274 270 272 276 279 287 288 292 284 277 271 263 268 269 261 270 265 270 275 269 274 270 269
303 304 290 288 288 286 286 281 277 270 260 263 260 259 263 268 271 268 269 276 283 289 296 290 285 275 273 267 266 265 265 266 273 273 272 271 264 262
300 295 298 291 292 291 286 283 280 278 270 264 261 262 261 266 274 261 260 267 273 281 290 274 287 279 279 268 263 265 263 266 268 272 264 264 265 262
290 291 289 294 292 293 289 277 275 275 269 264 265 265 259 262 269 261 259 258 261 263 270 280 273 262 256 256 261 250 251 258 269 268 258 257 261 269
292 293 292 289 289 294 293 287 278 271 266 261 260 257 256 260 266 264 256 256 254 260 270 278 285 284 264 263 265 252 246 255 255 260 248 252 254 257
289 292 293 291 291 291 292 289 278 273 268 258 255 253 256 263 264 261 248 250 252 256 268 281 287 288 275 257 258 261 253 240 237 231 234 233 236 228
281 282 286 288 288 287 291 290 281 268 269 266 258 256 256 256 257 254 245 251 255 260 266 275 280 286 285 263 251 256 257 233 234 223 223 216 213 207
284 282 282 285 287 289 288 292 291 280 266 266 259 254 251 254 250 250 241 247 253 259 268 276 277 280 278 264 252 249 247 235 225 214 209 206 200 200
279 277 281 281 281 286 286 293 290 281 275 271 259 252 248 251 245 245 242 246 254 259 263 265 263 265 263 256 249 245 235 226 217 207 203 202 200 200
272 274 278 276 275 278 283 288 287 279 275 269 263 249 253 250 243 245 243 245 250 255 258 257 248 242 241 238 248 226 225 215 209 203 205 206 208 208
272 275 279 276 275 281 282 280 278 276 273 269 262 254 250 250 244 244 243 243 247 249 249 248 234 229 234 240 238 225 213 211 209 210 210 212 212 213
280 279 277 274 276 282 286 279 273 276 276 268 259 249 246 239 238 238 240 240 237 237 240 236 224 222 228 231 224 213 205 203 207 208 210 210 212 212
284 281 278 271 273 286 280 274 270 273 270 261 256 245 235 228 230 228 227 228 228 228 228 232 223 217 220 225 227 222 210 205 212 202 205 211 207 216
285 283 279 279 284 280 275 272 268 267 264 252 247 231 219 210 207 209 219 218 219 219 219 217 212 211 210 212 215 209 196 189 188 189 195 204 216 221
Height
1465 1464 1462 1460 1459 1458 1457 1455 1454 1453 1449 1448 1448 1450 1449 1447 1447 1444 1443 1443 1444 1443 1442 1446 1443 1444 1445 1448 1450 1451 1453 1455 1456 1458 1459 1461 1462 1464
1457 1457 1456 1455 1454 1453 1451 1449 1449 1449 1445 1443 1443 1444 1442 1440 1440 1437 1436 1436 1435 1435 1435 1438 1436 1437 1437 1439 1441 1443 1444 1445 1447 1449 1450 1452 1453 1454
1449 1449 1449 1450 1447 1446 1446 1444 1443 1443 1438 1436 1436 1435 1432 1432 1430 1430 1428 1428 1425 1428 1428 1428 1427 1430 1429 1430 1432 1434 1436 1437 1439 1440 1441 1442 1443 1444
1443 1441 1441 1441 1442 1441 1440 1439 1438 1436 1434 1430 1428 1426 1425 1423 1423 1422 1421 1420 1418 1420 1420 1419 1418 1420 1421 1422 1423 1425 1427 1429 1430 1431 1432 1434 1434 1435
1437 1434 1433 1433 1433 1433 1432 1431 1431 1430 1427 1425 1421 1421 1419 1417 1416 1415 1413 1413 1410 1413 1412 1411 1410 1410 1412 1415 1416 1418 1420 1421 1422 1423 1424 1425 1425 1425
1430 1428 1426 1425 1424 1425 1425 1424 1423 1421 1420 1418 1415 1414 1413 1412 1411 1409 1407 1407 1405 1406 1405 1404 1403 1402 1404 1407 1409 1411 1412 1413 1414 1415 1416 1416 1416 1416
1422 1420 1418 1417 1416 1415 1415 1415 1414 1413 1412 1411 1410 1408 1406 1405 1405 1406 1404 1403 1401 1400 1398 1398 1398 1398 1399 1400 1402 1404 1405 1406 1407 1407 1407 1407 1407 1407
1414 1412 1410 1408 1407 1406 1405 1405 1406 1406 1404 1403 1403 1402 1400 1401 1401 1401 1400 1400 1396 1395 1393 1392 1392 1393 1394 1395 1396 1398 1399 1400 1400 1400 1400 1400 1399 1399
1406 1405 1403 1401 1400 1398 1396 1395 1395 1395 1397 1398 1396 1396 1395 1395 1396 1394 1394 1394 1392 1390 1390 1386 1388 1388 1389 1389 1391 1392 1393 1394 1394 1394 1394 1393 1393 1393
1399 1397 1395 1393 1391 1390 1388 1387 1386 1386 1387 1388 1388 1389 1389 1390 1390 1388 1388 1387 1385 1384 1385 1379 1382 1381 1383 1384 1385 1386 1387 1388 1388 1388 1388 1388 1387 1387
1393 1390 1388 1385 1383 1382 1380 1378 1377 1376 1378 1379 1380 1381 1382 1382 1382 1382 1381 1382 1379 1378 1380 1377 1375 1376 1377 1377 1378 1379 1380 1382 1382 1382 1382 1382 1382 1382
1387 1384 1381 1379 1377 1375 1373 1372 1369 1368 1369 1370 1371 1372 1374 1374 1374 1374 1375 1376 1376 1374 1373 1373 1371 1372 1370 1370 1372 1373 1374 1375 1376 1376 1377 1378 1377 1378
1380 1377 1374 1372 1370 1368 1367 1364 1363 1363 1362 1362 1361 1363 1365 1365 1365 1366 1367 1370 1370 1368 1368 1368 1366 1366 1366 1365 1365 1366 1368 1368 1370 1370 1371 1372 1373 1373
1371 1368 1366 1364 1362 1360 1358 1356 1355 1355 1354 1353 1354 1353 1356 1357 1358 1359 1361 1362 1363 1364 1363 1362 1360 1360 1360 1360 1360 1361 1361 1362 1364 1365 1367 1368 1369 1369
1364 1360 1357 1355 1353 1351 1349 1348 1347 1346 1345 1344 1344 1345 1348 1351 1350 1352 1353 1354 1355 1357 1357 1356 1356 1354 1353 1353 1354 1355 1356 1356 1358 1359 1361 1364 1365 1366
1356 1353 1350 1346 1344 1342 1340 1338 1337 1337 1336 1335 1335 1337 1340 1341 1342 1344 1346 1348 1348 1350 1351 1351 1351 1349 1348 1347 1348 1350 1351 1353 1353 1355 1357 1359 1361 1363
1347 1343 1339 1337 1334 1332 1331 1329 1327 1327 1326 1326 1326 1328 1331 1333 1334 1337 1339 1341 1342 1343 1345 1345 1346 1345 1343 1343 1343 1344 1346 1348 1349 1351 1354 1356 1358 1360
1335 1332 1329 1328 1326 1324 1322 1321 1319 1318 1317 1318 1318 1319 1322 1325 1327 1329 1332 1334 1336 1338 1338 1340 1341 1341 1340 1340 1340 1340 1342 1344 1346 1348 1350 1352 1354 1357
1324 1322 1320 1318 1317 1315 1314 1313 1310 1309 1309 1310 1310 1312 1315 1317 1320 1322 1325 1327 1329 1330 1331 1333 1335 1337 1337 1337 1337 1338 1340 1341 1343 1346 1348 1350 1352 1354
1314 1312 1310 1309 1307 1306 1305 1303 1302 1301 1301 1301 1302 1304 1307 1310 1312 1314 1316 1319 1322 1324 1325 1327 1329 1333 1334 1335 1335 1336 1337 1340 1342 1344 1346 1348 1350 1351
1304 1301 1300 1299 1298 1297 1295 1293 1293 1292 1293 1294 1295 1297 1300 1303 1305 1308 1311 1313 1316 1318 1320 1322 1325 1329 1331 1332 1333 1333 1336 1338 1340 1343 1345 1346 1347 1349
1294 1292 1291 1289 1288 1287 1285 1284 1284 1284 1285 1286 1288 1290 1293 1297 1300 1303 1306 1309 1311 1314 1316 1319 1322 1325 1327 1328 1329 1332 1333 1335 1338 1340 1343 1346 1348 1348
1285 1284 1282 1281 1279 1277 1276 1276 1276 1277 1278 1280 1282 1285 1288 1292 1296 1300 1302 1305 1308 1311 1314 1316 1319 1321 1323 1326 1328 1330 1332 1334 1336 1339 1341 1344 1346 1347